Weather History for Huntsville, AL

Change the Weather History Date:

Thursday, January 31, 2013

  Actual Average Record
Temperature  
Mean Temperature 41 °F 43 °F  
Max Temperature 50 °F 53 °F 76 °F (2002)
Min Temperature 32 °F 33 °F -5 °F (1936)
Degree Days  
Heating Degree Days 24 22  
Month to date heating degree days 598 733  
Since 1 July heating degree days 1706 1910  
Cooling Degree Days 0 0  
Month to date cooling degree days 6 0  
Year to date cooling degree days 6 0  
Moisture  
Dew Point 27 °F    
Average Humidity 57    
Maximum Humidity 75    
Minimum Humidity 39    
Precipitation  
Precipitation 0.00 in 0.16 in 4.01 in (1951)
Month to date precipitation 8.59 4.89  
Year to date precipitation 8.59 4.89  
Snow  
Snow 0.00 in - - ()
Month to date snowfall 0.7  
Since 1 July snowfall 0.7  
Snow Depth 0.00 in    
Sea Level Pressure  
Sea Level Pressure 30.12 in    
Wind  
Wind Speed 11 mph (West)    
Max Wind Speed 21 mph    
Max Gust Speed 29 mph    
Visibility 10 miles    
Events      
T = Trace of Precipitation, MM = Missing Value Source: NWS Daily Summary

Daily Weather History Graph

Daily Weather History Graph

Search for Another Location

Airport:

Trip Planner

Search our weather history database for the weather conditions in past years. The results will help you decide how hot, cold, wet, or windy it might be!

Date:

Astronomy

Jan. 31, 2013 Rise Set
Actual Time 6:45 AM CST 5:15 PM CST
Civil Twilight 6:19 AM CST 5:42 PM CST
Nautical Twilight 5:49 AM CST 6:12 PM CST
Astronomical Twilight 5:19 AM CST 6:42 PM CST
Moon 10:02 PM CST (1/31) 8:59 AM CST (1/31)
Length of Visible Light 11h 23m
Length of Day
10h 30m
Waning Gibbous, 79% of the Moon is Illuminated
Jan 31
Waning Gibbous
Feb 3
Last Quarter
Feb 10
New
Feb 17
First Quarter
Feb 25
Full

Hourly Weather History & Observations

Time (CST) Temp. Windchill Dew Point Humidity Pressure Visibility Wind Dir Wind Speed Gust Speed Precip Events Conditions
12:53 AM 37.0 °F 28.5 °F 26.1 °F 65% 29.99 in 10.0 mi West 13.8 mph 25.3 mph N/A   Overcast
1:53 AM 37.0 °F 27.7 °F 24.1 °F 59% 30.01 in 10.0 mi WNW 16.1 mph 23.0 mph N/A   Overcast
2:53 AM 35.1 °F 27.4 °F 25.0 °F 67% 30.01 in 10.0 mi WNW 10.4 mph - N/A   Mostly Cloudy
3:53 AM 34.0 °F 26.0 °F 23.0 °F 64% 30.02 in 10.0 mi WNW 10.4 mph - N/A   Scattered Clouds
4:53 AM 32.0 °F 26.4 °F 25.0 °F 75% 30.05 in 10.0 mi West 5.8 mph - N/A   Partly Cloudy
5:53 AM 33.1 °F 23.0 °F 25.0 °F 72% 30.08 in 10.0 mi West 15.0 mph - N/A   Scattered Clouds
6:48 AM 32.0 °F 24.8 °F 24.8 °F 75% 30.09 in 10.0 mi West 8.1 mph - N/A   Mostly Cloudy
6:53 AM 33.1 °F 24.9 °F 25.0 °F 72% 30.10 in 10.0 mi West 10.4 mph - N/A   Mostly Cloudy
7:53 AM 33.1 °F 23.9 °F 27.0 °F 78% 30.14 in 10.0 mi West 12.7 mph - N/A   Mostly Cloudy
8:53 AM 34.0 °F 23.8 °F 25.0 °F 70% 30.17 in 10.0 mi West 16.1 mph 24.2 mph N/A   Mostly Cloudy
9:31 AM 35.6 °F 25.5 °F 24.8 °F 65% 30.16 in 10.0 mi WNW 17.3 mph 26.5 mph N/A   Scattered Clouds
9:53 AM 37.0 °F 28.5 °F 26.1 °F 65% 30.18 in 10.0 mi WNW 13.8 mph 20.7 mph N/A   Partly Cloudy
10:53 AM 39.0 °F 32.8 °F 27.0 °F 62% 30.19 in 10.0 mi West 9.2 mph 17.3 mph N/A   Partly Cloudy
11:53 AM 43.0 °F 38.2 °F 27.0 °F 53% 30.18 in 10.0 mi West 8.1 mph - N/A   Clear
12:53 PM 46.0 °F 41.0 °F 27.0 °F 47% 30.15 in 10.0 mi WNW 10.4 mph - N/A   Clear
1:53 PM 46.9 °F - 26.1 °F 44% 30.13 in 10.0 mi WNW 9.2 mph 19.6 mph N/A   Clear
2:53 PM 48.9 °F - 27.0 °F 43% 30.12 in 10.0 mi WSW 6.9 mph - N/A   Clear
3:53 PM 50.0 °F - 26.1 °F 39% 30.10 in 10.0 mi West 9.2 mph 20.7 mph N/A   Clear
4:53 PM 48.0 °F - 26.1 °F 42% 30.09 in 10.0 mi WSW 9.2 mph - N/A   Clear
5:53 PM 44.1 °F 39.0 °F 27.0 °F 51% 30.11 in 10.0 mi SW 9.2 mph - N/A   Clear
6:53 PM 43.0 °F 38.2 °F 28.0 °F 56% 30.13 in 10.0 mi SW 8.1 mph - N/A   Clear
7:53 PM 42.1 °F 37.7 °F 28.0 °F 58% 30.12 in 10.0 mi SSW 6.9 mph - N/A   Clear
8:53 PM 42.1 °F 36.1 °F 28.9 °F 60% 30.14 in 10.0 mi SW 10.4 mph - N/A   Clear
9:53 PM 41.0 °F 34.7 °F 28.9 °F 62% 30.14 in 10.0 mi SW 10.4 mph - N/A   Clear
10:53 PM 43.0 °F 36.4 °F 28.9 °F 58% 30.13 in 10.0 mi SW 12.7 mph - N/A   Mostly Cloudy
11:32 PM 42.8 °F 38.6 °F 28.4 °F 57% 30.16 in 10.0 mi West 6.9 mph 18.4 mph N/A   Partly Cloudy
11:53 PM 42.1 °F 37.1 °F 30.0 °F 62% 30.18 in 10.0 mi WNW 8.1 mph - N/A   Mostly Cloudy